CZ-6A DEB

Satellite information

Favourite Embed

Satellite Type and Status

DEBRISIN ORBIT

Key statistics

Satellite CZ-6A DEB at a glance.

Uptime

495

Days in orbit

Revolutions

≈ 14.7

Per day

Orbit

SSO

Sun Synchronous Orbit

Inclination

90.0

Latest

Satellite identification and parameters

Extended collection of information and parameters for CZ-6A DEB.

Object identification

Identified? True

Debris? True

Object name: CZ-6A DEB

International designator: 2024-140AAB

Object number (NORAD): 61469

Object ID (CCSDS): 61469

Country: PEOPLES REPUBLIC OF CHINA (PRC)

Current information (Y/N): Y

RCS size: SMALL

Orbital parameters

Period: 97.706 minutes

Inclination: 90.0398 deg

SMA: 7027.052 km

Apoapsis: 743.27 km

Periapsis: 554.563 km

RAAN: 355.1323 deg

Eccentricy: 0.01342714

Argument of periapsis: 91.3953 deg

Mean anomaly: 270.2653 deg

Mean motion: 14.73815285 rev/day

Mean motion (dot): 0.00013331 rev/day2

B* drag term: 0.0017589436 1/REarth

Two-line elements (TLE)

Creation date: Dec. 14, 2025, 3:07 a.m.

Reference frame: TEME

Reference center: EARTH

Epoch: Dec. 13, 2025, 11:26 a.m. UTC

TLE line 0: 0 CZ-6A DEB

TLE line 1: 1 61469U 24140AAB 25347.47682805 .00013331 00000-0 17589-2 0 9991

TLE line 2: 2 61469 90.0398 355.1323 0134271 91.3953 270.2653 14.73815285 70250

Live tracking on map

Real-time ground track for satellite CZ-6A DEB.

In-orbit conjunctions

A list of the most updated potential collisions computed for object CZ-6A DEB.

Target Orbit TCA Probability of collision Miss distance Type
CZ-6A DEB SSO 2025-01-25 11:09:16 0.0003927689 80.0 (m) DEBRIS
FENGYUN 1C DEB SSO 2025-01-19 05:24:14 0.0001108609 872.0 (m) DEBRIS
IRIDIUM 33 DEB LEO 2025-01-07 08:20:47 0.0001552373 205.0 (m) DEBRIS
SL-8 DEB LEO 2024-11-14 23:12:54 0.000321139 300.0 (m) DEBRIS
NOAA 16 DEB SSO 2024-11-10 11:39:31 0.0005202251 230.0 (m) DEBRIS

Associated space launch

18 Low Earth Orbit communication satellites with Ku, Q and V band payloads for the G60 constellation operated by Shanghai Spacecom Satellite Technology (SSST) with funding backed by the Shanghai local government. Initial constellation will consist of 1296 satellites by 2027 with long term plans to expand it to 12000 satellites.

CZ-6A DEB was lifted into orbit during the mission ‘Long March 6A | G60 Polar Group 01’, on board a Long March 6A space rocket.

The launch took place on Aug. 6, 2024, 6:42 a.m. from Launch Complex 9A.

For more information about the launch, click the button.

Launch to space Long March 6A | G60 Polar Group 01
Long March 6A | G60 Polar Group 01

Agency: N/A

Status: Launch Successful

Launch date: Aug. 6, 2024, 6:42 a.m. UTC

Rocket: Long March 6A

Launch pad: Launch Complex 9A

Location: Taiyuan Satellite Launch Center, People's Republic of China

...

Latest news about this satellite

News about space launch
Brightness of first Chinese broadband constellation satellites alarms astronomers

The first satellites of a Chinese broadband constellation are significantly brighter than those of Western systems, posing a new challenge for astronomers.

News about space launch
Chinese rocket stage breaks up into cloud of more than 700 pieces of space debris

HELSINKI — A Chinese Long March 6A rocket’s upper stage has fragmented into a cloud of over 700 pieces of space debris, adding to concerns about long-term orbital safety. China […]

News about space launch
China's Thousand Sails Megaconstellation Kicks Off with Dangerous Debris Field

China's Thousand Sails Megaconstellation Kicks Off with Dangerous Debris Field


Newsletter sign-up

Weekly statistics, charts and insights to help you stay on top of the space industry.